Tupelo, MS

3:40 PM CDT on April 26, 2017 (GMT -0500)
Tupelo Regional

Weather History for KTUP - January, 2013

Change the Weather History Date:

Sunday, January 13, 2013

  Actual Average Record
Temperature  
Mean Temperature 56 °F 41 °F  
Max Temperature 73 °F 51 °F 76 °F (1972)
Min Temperature 38 °F 31 °F 4 °F (1962)
Degree Days  
Heating Degree Days 9 24  
Month to date heating degree days 225 308  
Since 1 July heating degree days 1312 1481  
Cooling Degree Days 0 0  
Month to date cooling degree days 6 0  
Year to date cooling degree days 6 0  
Growing Degree Days 4 (Base 50)    
Moisture  
Dew Point 51 °F    
Average Humidity 86    
Maximum Humidity 93    
Minimum Humidity 78    
Precipitation  
Precipitation 0.67 in 0.14 in 1.48 in (2005)
Month to date precipitation 5.25 1.91  
Year to date precipitation 5.25 1.91  
Snow  
Snow 0.00 in 0.00 in T in (1997)
Month to date snowfall T 0.4  
Since 1 July snowfall T 0.7  
Snow Depth 0.00 in    
Sea Level Pressure  
Sea Level Pressure 29.96 in    
Wind  
Wind Speed 13 mph (WNW)    
Max Wind Speed 24 mph    
Max Gust Speed 38 mph    
Visibility 9 miles    
Events Rain    
T = Trace of Precipitation, MM = Missing Value Source: NWS Daily Summary

Daily Weather History Graph

Daily Weather History Graph

Search for Another Location

Airport or City:

Trip Planner

Search our weather history database for the weather conditions in past years. The results will help you decide how hot, cold, wet, or windy it might be!

Date:

Astronomy

Jan. 13, 2013 Rise Set
Actual Time 7:01 AM CST 5:06 PM CST
Civil Twilight 6:33 AM CST 5:34 PM CST
Nautical Twilight 6:03 AM CST 6:05 PM CST
Astronomical Twilight 5:32 AM CST 6:35 PM CST
Moon 8:07 AM CST (1/13) 7:36 PM CST (1/13)
Length of Visible Light 11h 00m
Length of Day
10h 05m
Waxing Crescent, 5% of the Moon is Illuminated
Jan 13
Waxing Crescent
Jan 18
First Quarter
Jan 26
Full
Feb 3
Last Quarter
Feb 10
New

Hourly Weather History & Observations

Time (CST) Temp. Windchill Dew Point Humidity Pressure Visibility Wind Dir Wind Speed Gust Speed Precip Events Conditions
12:53 AM 69.1 °F - 63.0 °F 81% 29.83 in 10.0 mi SSW 15.0 mph 23.0 mph N/A   Overcast
1:53 AM 68.0 °F - 63.0 °F 84% 29.84 in 10.0 mi SSW 8.1 mph - N/A   Overcast
2:53 AM 68.0 °F - 63.0 °F 84% 29.85 in 10.0 mi SSW 10.4 mph - N/A   Overcast
3:31 AM 68.0 °F - 62.6 °F 83% 29.88 in 10.0 mi SSW 8.1 mph - N/A   Overcast
3:53 AM 66.9 °F - 64.0 °F 90% 29.87 in 9.0 mi South 8.1 mph - 0.00 in Rain Light Rain
4:07 AM 66.2 °F - 64.4 °F 94% 29.88 in 10.0 mi South 8.1 mph - 0.00 in   Overcast
4:53 AM 66.9 °F - 64.0 °F 90% 29.87 in 10.0 mi South 8.1 mph - 0.01 in   Overcast
5:53 AM 68.0 °F - 64.0 °F 87% 29.85 in 10.0 mi South 11.5 mph 23.0 mph N/A   Overcast
6:53 AM 68.0 °F - 64.0 °F 87% 29.85 in 10.0 mi South 13.8 mph - N/A   Overcast
7:53 AM 68.0 °F - 64.0 °F 87% 29.86 in 10.0 mi SSW 12.7 mph 23.0 mph N/A   Mostly Cloudy
8:26 AM 69.8 °F - 64.4 °F 83% 29.88 in 10.0 mi South 16.1 mph 25.3 mph N/A   Mostly Cloudy
8:39 AM 69.8 °F - 64.4 °F 83% 29.88 in 10.0 mi South 16.1 mph - N/A   Overcast
8:53 AM 69.1 °F - 64.0 °F 84% 29.88 in 10.0 mi SSW 18.4 mph 26.5 mph N/A   Mostly Cloudy
9:53 AM 70.0 °F - 64.0 °F 81% 29.88 in 10.0 mi SSW 17.3 mph 24.2 mph N/A   Mostly Cloudy
10:06 AM 69.8 °F - 64.4 °F 83% 29.89 in 10.0 mi SSW 15.0 mph 24.2 mph N/A   Overcast
10:53 AM 71.1 °F - 64.0 °F 78% 29.87 in 10.0 mi SSW 17.3 mph 27.6 mph N/A   Overcast
11:53 AM 71.1 °F - 64.0 °F 78% 29.83 in 10.0 mi SSW 19.6 mph 26.5 mph N/A   Overcast
12:01 PM 71.6 °F - 64.4 °F 78% 29.83 in 10.0 mi South 19.6 mph 29.9 mph N/A   Mostly Cloudy
12:53 PM 62.1 °F - 55.9 °F 80% 29.84 in 10.0 mi WNW 11.5 mph 19.6 mph N/A   Overcast
1:10 PM 51.8 °F - 48.2 °F 88% 29.87 in 2.5 mi NNW 12.7 mph 29.9 mph 0.03 in Rain Heavy Rain
1:26 PM 50.0 °F - 46.4 °F 87% 29.89 in 5.0 mi NNW 15.0 mph 24.2 mph 0.09 in Rain Rain
1:33 PM 48.2 °F - 46.4 °F 93% 29.89 in 1.8 mi NNW 11.5 mph 24.2 mph 0.17 in Rain Heavy Rain
1:40 PM 48.2 °F - 46.4 °F 93% 29.89 in 3.0 mi North 13.8 mph 20.7 mph 0.21 in Rain Light Rain
1:53 PM 48.0 °F - 46.0 °F 93% 29.92 in 10.0 mi North 10.4 mph 19.6 mph 0.21 in   Overcast
2:00 PM 48.2 °F - 44.6 °F 87% 29.93 in 10.0 mi NW 8.1 mph - N/A   Overcast
2:34 PM 44.6 °F 37.8 °F 41.0 °F 87% 29.96 in 2.5 mi North 15.0 mph 23.0 mph 0.08 in Rain Heavy Rain
2:53 PM 43.0 °F 36.4 °F 41.0 °F 93% 29.98 in 4.0 mi North 12.7 mph 24.2 mph 0.14 in Rain Heavy Rain
3:53 PM 43.0 °F 37.7 °F 39.9 °F 89% 30.02 in 7.0 mi North 9.2 mph - 0.07 in Rain Rain
4:00 PM - - - N/A% - - North - - N/A   Unknown
4:04 PM 42.8 °F 36.2 °F 39.2 °F 87% 30.06 in 4.0 mi NNW 12.7 mph - 0.03 in Rain Heavy Rain
4:53 PM 42.1 °F 35.2 °F 39.0 °F 89% 30.06 in 10.0 mi North 12.7 mph 20.7 mph 0.12 in Rain Light Rain
5:01 PM 42.8 °F 35.4 °F 39.2 °F 87% 30.07 in 10.0 mi North 15.0 mph 24.2 mph 0.00 in Rain Light Rain
5:53 PM 39.9 °F 31.4 °F 37.0 °F 89% 30.10 in 8.0 mi North 16.1 mph 21.9 mph 0.11 in Rain Rain
6:38 PM 39.2 °F 30.5 °F 37.4 °F 93% 30.12 in 10.0 mi North 16.1 mph 21.9 mph 0.01 in   Overcast
6:53 PM 39.0 °F 30.6 °F 37.0 °F 93% 30.14 in 10.0 mi NNE 15.0 mph 24.2 mph 0.01 in   Overcast
7:23 PM 39.2 °F 31.2 °F 35.6 °F 87% 30.15 in 10.0 mi NNE 13.8 mph 20.7 mph N/A   Overcast
7:53 PM 37.9 °F 29.6 °F 35.1 °F 89% 30.16 in 10.0 mi NNE 13.8 mph - N/A   Overcast
8:53 PM 37.9 °F 27.9 °F 34.0 °F 86% 30.17 in 10.0 mi NE 19.6 mph 27.6 mph N/A   Overcast
9:53 PM 37.9 °F 30.5 °F 35.1 °F 89% 30.19 in 10.0 mi NE 11.5 mph - N/A   Overcast
10:53 PM 37.9 °F 30.9 °F 35.1 °F 89% 30.20 in 10.0 mi NNE 10.4 mph - N/A   Overcast
11:53 PM 37.9 °F 29.2 °F 34.0 °F 86% 30.20 in 10.0 mi NE 15.0 mph - N/A   Overcast